Time,TemperatureF,DewpointF,PressureIn,WindDirection,WindDirectionDegrees,WindSpeedMPH,WindSpeedGustMPH,Humidity,HourlyPrecipIn,Conditions,Clouds,dailyrainin,SoftwareType,DateUTC
2013-03-30 00:04:00,39.5,31.9,30.29,SSW,203,6.9,8.5,74,0.00,,,0.00,WUHU216HW,2013-03-30 06:04:00,
2013-03-30 00:10:00,39.3,31.7,30.29,SSW,203,5.8,6.9,74,0.00,,,0.00,WUHU216HW,2013-03-30 06:10:00,
2013-03-30 00:15:00,39.3,31.7,30.29,South,180,2.6,5.8,74,0.00,,,0.00,WUHU216HW,2013-03-30 06:15:00,
2013-03-30 00:20:00,39.0,31.3,30.29,WSW,248,0.0,6.0,74,0.00,,,0.00,WUHU216HW,2013-03-30 06:20:00,
2013-03-30 00:25:00,38.3,30.3,30.29,SSW,203,0.0,6.0,73,0.00,,,0.00,WUHU216HW,2013-03-30 06:25:00,
2013-03-30 00:30:00,37.4,29.5,30.29,SSW,203,0.0,1.7,73,0.00,,,0.00,WUHU216HW,2013-03-30 06:30:00,
2013-03-30 00:35:00,36.3,28.7,30.29,SW,225,0.0,0.0,74,0.00,,,0.00,WUHU216HW,2013-03-30 06:35:00,
2013-03-30 00:40:00,35.7,28.5,30.30,SW,225,0.0,0.0,75,0.00,,,0.00,WUHU216HW,2013-03-30 06:40:00,
2013-03-30 00:45:00,35.4,28.5,30.30,SW,225,0.0,0.0,76,0.00,,,0.00,WUHU216HW,2013-03-30 06:45:00,
2013-03-30 00:50:00,35.0,28.5,30.29,SSW,203,4.9,4.9,77,0.00,,,0.00,WUHU216HW,2013-03-30 06:50:00,
2013-03-30 00:55:00,35.2,29.3,30.29,South,180,2.2,4.9,79,0.00,,,0.00,WUHU216HW,2013-03-30 06:55:00,
2013-03-30 01:00:00,35.2,29.3,30.30,SSW,203,0.0,4.0,79,0.00,,,0.00,WUHU216HW,2013-03-30 07:00:00,
2013-03-30 01:05:00,35.2,29.3,30.30,SSW,203,0.0,2.9,79,0.00,,,0.00,WUHU216HW,2013-03-30 07:05:00,
2013-03-30 01:10:00,34.8,28.6,30.30,SSW,203,0.0,0.0,78,0.00,,,0.00,WUHU216HW,2013-03-30 07:10:00,
2013-03-30 01:15:00,34.7,28.7,30.30,SSW,203,0.0,0.0,79,0.00,,,0.00,WUHU216HW,2013-03-30 07:15:00,
2013-03-30 01:20:00,34.3,28.4,30.30,SW,225,0.0,0.0,79,0.00,,,0.00,WUHU216HW,2013-03-30 07:20:00,
2013-03-30 01:25:00,34.3,28.4,30.30,SW,225,0.0,0.0,79,0.00,,,0.00,WUHU216HW,2013-03-30 07:25:00,
2013-03-30 01:31:00,33.9,28.2,30.30,SW,225,0.0,0.0,80,0.00,,,0.00,WUHU216HW,2013-03-30 07:31:00,
2013-03-30 01:36:00,33.6,28.0,30.30,SW,225,0.0,0.0,80,0.00,,,0.00,WUHU216HW,2013-03-30 07:36:00,
2013-03-30 01:41:00,33.6,28.3,30.30,SW,225,0.0,0.0,81,0.00,,,0.00,WUHU216HW,2013-03-30 07:41:00,
2013-03-30 01:46:00,33.6,28.3,30.30,SW,225,0.0,0.0,81,0.00,,,0.00,WUHU216HW,2013-03-30 07:46:00,
2013-03-30 01:51:00,33.6,28.6,30.30,SW,225,0.0,0.0,82,0.00,,,0.00,WUHU216HW,2013-03-30 07:51:00,
2013-03-30 01:56:00,33.6,28.6,30.30,SW,225,0.0,0.0,82,0.00,,,0.00,WUHU216HW,2013-03-30 07:56:00,
2013-03-30 02:01:00,33.8,28.7,30.30,SW,225,0.0,0.0,82,0.00,,,0.00,WUHU216HW,2013-03-30 08:01:00,
2013-03-30 02:06:00,34.1,29.2,30.30,SW,225,3.1,3.1,83,0.00,,,0.00,WUHU216HW,2013-03-30 08:06:00,
2013-03-30 02:11:00,34.3,29.6,30.30,SSW,203,0.0,3.5,83,0.00,,,0.00,WUHU216HW,2013-03-30 08:11:00,
2013-03-30 02:17:00,34.3,29.6,30.30,SSE,158,2.4,4.9,83,0.00,,,0.00,WUHU216HW,2013-03-30 08:17:00,
2013-03-30 02:22:00,34.8,30.1,30.30,SW,225,2.9,4.9,83,0.00,,,0.00,WUHU216HW,2013-03-30 08:22:00,
2013-03-30 02:27:00,35.4,30.7,30.30,South,180,2.2,4.0,83,0.00,,,0.00,WUHU216HW,2013-03-30 08:27:00,
2013-03-30 02:32:00,35.7,30.7,30.30,South,180,3.1,4.2,82,0.00,,,0.00,WUHU216HW,2013-03-30 08:32:00,
2013-03-30 02:37:00,35.7,30.4,30.30,SSW,203,0.0,4.2,81,0.00,,,0.00,WUHU216HW,2013-03-30 08:37:00,
2013-03-30 02:42:00,35.7,30.4,30.30,SSW,203,2.6,5.8,81,0.00,,,0.00,WUHU216HW,2013-03-30 08:42:00,
2013-03-30 02:47:00,35.9,30.6,30.30,SW,225,0.0,5.8,81,0.00,,,0.00,WUHU216HW,2013-03-30 08:47:00,
2013-03-30 02:52:00,35.7,30.2,30.30,SW,225,0.0,3.8,80,0.00,,,0.00,WUHU216HW,2013-03-30 08:52:00,
2013-03-30 02:57:00,35.2,29.6,30.30,SW,225,0.0,0.0,80,0.00,,,0.00,WUHU216HW,2013-03-30 08:57:00,
2013-03-30 03:02:00,34.7,28.9,30.30,SSW,203,4.4,4.6,80,0.00,,,0.00,WUHU216HW,2013-03-30 09:02:00,
2013-03-30 03:07:00,34.3,28.7,30.30,SSW,203,1.7,4.6,80,0.00,,,0.00,WUHU216HW,2013-03-30 09:07:00,
2013-03-30 03:12:00,34.7,29.4,30.30,SSW,203,0.0,4.2,81,0.00,,,0.00,WUHU216HW,2013-03-30 09:12:00,
2013-03-30 03:22:00,34.8,29.5,30.30,SSW,203,0.0,2.0,81,0.00,,,0.00,WUHU216HW,2013-03-30 09:22:00,
2013-03-30 03:27:00,34.3,28.7,30.30,WSW,248,0.0,0.0,80,0.00,,,0.00,WUHU216HW,2013-03-30 09:27:00,
2013-03-30 03:32:00,33.9,28.6,30.30,SW,225,0.0,0.0,81,0.00,,,0.00,WUHU216HW,2013-03-30 09:32:00,
2013-03-30 03:34:00,33.8,28.5,30.30,SW,225,0.0,0.0,81,0.00,,,0.00,WUHU216HW,2013-03-30 09:34:00,
2013-03-30 03:42:00,33.6,28.1,30.30,SW,225,0.0,0.0,81,0.00,,,0.00,WUHU216HW,2013-03-30 09:42:00,
2013-03-30 03:47:00,32.7,27.8,30.30,SW,225,0.0,0.0,82,0.00,,,0.00,WUHU216HW,2013-03-30 09:47:00,
2013-03-30 03:52:00,32.5,27.6,30.30,South,180,0.0,0.0,82,0.00,,,0.00,WUHU216HW,2013-03-30 09:52:00,
2013-03-30 03:57:00,32.7,28.1,30.30,South,180,0.0,1.7,83,0.00,,,0.00,WUHU216HW,2013-03-30 09:57:00,
2013-03-30 04:02:00,32.7,28.1,30.30,South,180,0.0,1.7,83,0.00,,,0.00,WUHU216HW,2013-03-30 10:02:00,
2013-03-30 04:07:00,32.7,28.1,30.30,South,180,0.0,0.0,83,0.00,,,0.00,WUHU216HW,2013-03-30 10:07:00,
2013-03-30 04:12:00,32.7,28.1,30.30,South,180,0.0,0.0,83,0.00,,,0.00,WUHU216HW,2013-03-30 10:12:00,
2013-03-30 04:17:00,32.7,28.1,30.30,South,180,0.0,0.0,83,0.00,,,0.00,WUHU216HW,2013-03-30 10:17:00,
2013-03-30 04:22:00,32.5,27.9,30.30,South,180,0.0,0.0,83,0.00,,,0.00,WUHU216HW,2013-03-30 10:22:00,
2013-03-30 04:28:00,32.3,27.7,30.30,SW,225,0.0,0.0,83,0.00,,,0.00,WUHU216HW,2013-03-30 10:28:00,
2013-03-30 04:32:00,32.1,27.9,30.31,SW,225,0.0,0.0,84,0.00,,,0.00,WUHU216HW,2013-03-30 10:32:00,
2013-03-30 04:38:00,32.1,27.9,30.30,SW,225,1.3,1.3,84,0.00,,,0.00,WUHU216HW,2013-03-30 10:38:00,
2013-03-30 04:43:00,32.1,27.9,30.31,SW,225,0.0,1.3,84,0.00,,,0.00,WUHU216HW,2013-03-30 10:43:00,
2013-03-30 04:48:00,32.1,27.9,30.31,SW,225,0.0,0.0,84,0.00,,,0.00,WUHU216HW,2013-03-30 10:48:00,
2013-03-30 04:53:00,32.1,27.9,30.30,SW,225,0.0,0.0,84,0.00,,,0.00,WUHU216HW,2013-03-30 10:53:00,
2013-03-30 04:58:00,31.8,27.5,30.31,SW,225,0.0,0.0,84,0.00,,,0.00,WUHU216HW,2013-03-30 10:58:00,
2013-03-30 05:03:00,31.8,27.5,30.31,SW,225,0.0,0.0,84,0.00,,,0.00,WUHU216HW,2013-03-30 11:03:00,
2013-03-30 05:08:00,31.2,27.0,30.31,SW,225,0.0,0.0,84,0.00,,,0.00,WUHU216HW,2013-03-30 11:08:00,
2013-03-30 05:13:00,31.1,26.8,30.31,SW,225,0.0,0.0,84,0.00,,,0.00,WUHU216HW,2013-03-30 11:13:00,
2013-03-30 05:18:00,30.9,26.6,30.31,West,270,0.0,0.0,84,0.00,,,0.00,WUHU216HW,2013-03-30 11:18:00,
2013-03-30 05:23:00,30.9,26.6,30.31,West,270,0.0,0.0,84,0.00,,,0.00,WUHU216HW,2013-03-30 11:23:00,
2013-03-30 05:28:00,30.7,26.7,30.31,West,270,0.0,0.0,85,0.00,,,0.00,WUHU216HW,2013-03-30 11:28:00,
2013-03-30 05:33:00,30.7,26.7,30.31,SW,225,0.0,0.0,85,0.00,,,0.00,WUHU216HW,2013-03-30 11:33:00,
2013-03-30 05:39:00,30.9,27.2,30.31,SW,225,0.0,0.0,86,0.00,,,0.00,WUHU216HW,2013-03-30 11:39:00,
2013-03-30 05:44:00,31.1,27.4,30.31,SW,225,0.0,0.0,86,0.00,,,0.00,WUHU216HW,2013-03-30 11:44:00,
2013-03-30 05:49:00,31.1,27.4,30.31,SW,225,0.0,0.0,86,0.00,,,0.00,WUHU216HW,2013-03-30 11:49:00,
2013-03-30 05:54:00,31.2,27.6,30.31,SW,225,0.0,0.0,86,0.00,,,0.00,WUHU216HW,2013-03-30 11:54:00,
2013-03-30 05:59:00,31.2,27.6,30.31,SW,225,0.0,0.0,86,0.00,,,0.00,WUHU216HW,2013-03-30 11:59:00,
2013-03-30 06:04:00,31.2,27.6,30.31,SW,225,0.0,0.0,86,0.00,,,0.00,WUHU216HW,2013-03-30 12:04:00,
2013-03-30 06:09:00,31.1,27.4,30.31,SW,225,0.0,0.0,86,0.00,,,0.00,WUHU216HW,2013-03-30 12:09:00,
2013-03-30 06:14:00,31.1,27.4,30.31,SW,225,0.0,0.0,86,0.00,,,0.00,WUHU216HW,2013-03-30 12:14:00,
2013-03-30 06:19:00,31.1,27.4,30.31,SW,225,0.0,0.0,86,0.00,,,0.00,WUHU216HW,2013-03-30 12:19:00,
2013-03-30 06:24:00,31.2,27.6,30.31,SW,225,0.0,0.0,86,0.00,,,0.00,WUHU216HW,2013-03-30 12:24:00,
2013-03-30 06:29:00,31.2,27.6,30.31,SW,225,0.0,0.0,86,0.00,,,0.00,WUHU216HW,2013-03-30 12:29:00,
2013-03-30 06:34:00,31.2,27.6,30.31,SW,225,0.0,0.0,86,0.00,,,0.00,WUHU216HW,2013-03-30 12:34:00,
2013-03-30 06:39:00,30.9,27.2,30.31,SW,225,0.0,0.0,86,0.00,,,0.00,WUHU216HW,2013-03-30 12:39:00,
2013-03-30 06:44:00,30.5,26.8,30.31,SW,225,0.0,0.0,86,0.00,,,0.00,WUHU216HW,2013-03-30 12:44:00,
2013-03-30 06:49:00,30.3,26.7,30.30,SW,225,0.0,0.0,86,0.00,,,0.00,WUHU216HW,2013-03-30 12:49:00,
2013-03-30 06:54:00,30.0,26.3,30.31,SW,225,0.0,0.0,86,0.00,,,0.00,WUHU216HW,2013-03-30 12:54:00,
2013-03-30 07:00:00,29.8,25.8,30.31,SW,225,0.0,0.0,85,0.00,,,0.00,WUHU216HW,2013-03-30 13:00:00,
2013-03-30 07:05:00,29.8,26.1,30.31,SW,225,0.0,0.0,86,0.00,,,0.00,WUHU216HW,2013-03-30 13:05:00,
2013-03-30 07:10:00,29.8,26.1,30.31,WSW,248,0.0,0.0,86,0.00,,,0.00,WUHU216HW,2013-03-30 13:10:00,
2013-03-30 07:15:00,29.8,26.1,30.32,WSW,248,0.0,0.0,86,0.00,,,0.00,WUHU216HW,2013-03-30 13:15:00,
2013-03-30 07:20:00,30.0,26.6,30.32,WSW,248,0.0,0.0,87,0.00,,,0.00,WUHU216HW,2013-03-30 13:20:00,
2013-03-30 07:25:00,30.2,26.8,30.32,WSW,248,0.0,0.0,87,0.00,,,0.00,WUHU216HW,2013-03-30 13:25:00,
2013-03-30 07:30:00,30.3,26.9,30.32,WSW,248,0.0,0.0,87,0.00,,,0.00,WUHU216HW,2013-03-30 13:30:00,
2013-03-30 07:35:00,30.3,26.9,30.32,WSW,248,0.0,0.0,87,0.00,,,0.00,WUHU216HW,2013-03-30 13:35:00,
2013-03-30 07:40:00,30.3,26.9,30.33,WSW,248,0.0,0.0,87,0.00,,,0.00,WUHU216HW,2013-03-30 13:40:00,
2013-03-30 07:45:00,30.3,26.9,30.32,WSW,248,0.0,0.0,87,0.00,,,0.00,WUHU216HW,2013-03-30 13:45:00,
2013-03-30 07:50:00,30.2,26.8,30.32,WSW,248,0.0,0.0,87,0.00,,,0.00,WUHU216HW,2013-03-30 13:50:00,
2013-03-30 07:55:00,30.0,26.6,30.33,SW,225,0.0,0.0,87,0.00,,,0.00,WUHU216HW,2013-03-30 13:55:00,
2013-03-30 08:00:00,30.0,26.6,30.33,SW,225,0.0,0.0,87,0.00,,,0.00,WUHU216HW,2013-03-30 14:00:00,
2013-03-30 08:05:00,30.2,26.8,30.33,SW,225,0.0,0.0,87,0.00,,,0.00,WUHU216HW,2013-03-30 14:05:00,
2013-03-30 08:10:00,30.3,26.9,30.33,SW,225,0.0,0.0,87,0.00,,,0.00,WUHU216HW,2013-03-30 14:10:00,
2013-03-30 08:15:00,30.3,26.9,30.33,SW,225,0.0,0.0,87,0.00,,,0.00,WUHU216HW,2013-03-30 14:15:00,
2013-03-30 08:20:00,30.5,27.1,30.33,SW,225,0.0,0.0,87,0.00,,,0.00,WUHU216HW,2013-03-30 14:20:00,
2013-03-30 08:26:00,30.7,27.3,30.33,SW,225,0.0,0.0,87,0.00,,,0.00,WUHU216HW,2013-03-30 14:26:00,
2013-03-30 08:31:00,30.7,27.3,30.33,SW,225,0.0,0.0,87,0.00,,,0.00,WUHU216HW,2013-03-30 14:31:00,
2013-03-30 08:36:00,30.9,27.5,30.34,SW,225,0.0,0.0,87,0.00,,,0.00,WUHU216HW,2013-03-30 14:36:00,
2013-03-30 08:41:00,30.9,27.5,30.34,SW,225,0.0,0.0,87,0.00,,,0.00,WUHU216HW,2013-03-30 14:41:00,
2013-03-30 08:46:00,31.1,27.7,30.34,SW,225,0.0,0.0,87,0.00,,,0.00,WUHU216HW,2013-03-30 14:46:00,
2013-03-30 08:52:00,31.1,27.7,30.34,SW,225,0.0,0.0,87,0.00,,,0.00,WUHU216HW,2013-03-30 14:52:00,
2013-03-30 08:57:00,31.2,27.8,30.33,SW,225,0.0,0.0,87,0.00,,,0.00,WUHU216HW,2013-03-30 14:57:00,
2013-03-30 09:02:00,31.2,27.8,30.34,SW,225,0.0,0.0,87,0.00,,,0.00,WUHU216HW,2013-03-30 15:02:00,
2013-03-30 09:07:00,31.6,28.2,30.34,SW,225,0.0,0.0,87,0.00,,,0.00,WUHU216HW,2013-03-30 15:07:00,
2013-03-30 09:12:00,31.8,28.4,30.34,SW,225,0.0,0.0,87,0.00,,,0.00,WUHU216HW,2013-03-30 15:12:00,
2013-03-30 09:17:00,31.8,28.7,30.34,SW,225,0.0,0.0,87,0.00,,,0.00,WUHU216HW,2013-03-30 15:17:00,
2013-03-30 09:22:00,32.1,29.0,30.34,SW,225,0.0,0.0,88,0.00,,,0.00,WUHU216HW,2013-03-30 15:22:00,
2013-03-30 09:27:00,32.5,29.3,30.34,SSW,203,0.0,0.0,88,0.00,,,0.00,WUHU216HW,2013-03-30 15:27:00,
2013-03-30 09:32:00,32.9,29.7,30.34,SSW,203,0.0,0.0,88,0.00,,,0.00,WUHU216HW,2013-03-30 15:32:00,
2013-03-30 09:37:00,33.6,30.3,30.34,SSW,203,0.0,1.5,88,0.00,,,0.00,WUHU216HW,2013-03-30 15:37:00,
2013-03-30 09:42:00,34.3,31.0,30.34,SW,225,0.0,2.4,88,0.00,,,0.00,WUHU216HW,2013-03-30 15:42:00,
2013-03-30 09:47:00,34.8,31.3,30.33,SSW,203,0.0,2.4,87,0.00,,,0.00,WUHU216HW,2013-03-30 15:47:00,
2013-03-30 09:52:00,35.7,32.2,30.33,SW,225,1.7,2.2,87,0.00,,,0.00,WUHU216HW,2013-03-30 15:52:00,
2013-03-30 09:58:00,36.5,32.3,30.33,SSW,203,0.0,4.6,85,0.00,,,0.00,WUHU216HW,2013-03-30 15:58:00,
2013-03-30 10:03:00,37.4,32.9,30.34,SW,225,0.0,4.6,84,0.00,,,0.00,WUHU216HW,2013-03-30 16:03:00,
2013-03-30 10:08:00,38.3,33.5,30.33,WSW,248,0.0,0.0,83,0.00,,,0.00,WUHU216HW,2013-03-30 16:08:00,
2013-03-30 10:13:00,39.3,34.0,30.34,SW,225,0.0,0.0,81,0.00,,,0.00,WUHU216HW,2013-03-30 16:13:00,
2013-03-30 10:18:00,40.8,35.0,30.34,WNW,293,0.0,0.0,80,0.00,,,0.00,WUHU216HW,2013-03-30 16:18:00,
2013-03-30 10:23:00,42.4,35.7,30.34,WNW,293,0.0,0.0,77,0.00,,,0.00,WUHU216HW,2013-03-30 16:23:00,
2013-03-30 10:28:00,43.8,36.4,30.34,WNW,293,0.0,0.0,75,0.00,,,0.00,WUHU216HW,2013-03-30 16:28:00,
2013-03-30 10:33:00,45.1,36.6,30.34,North,0,0.0,2.2,72,0.00,,,0.00,WUHU216HW,2013-03-30 16:33:00,
2013-03-30 10:38:00,46.2,36.6,30.34,NNW,338,0.0,2.2,69,0.00,,,0.00,WUHU216HW,2013-03-30 16:38:00,
2013-03-30 10:43:00,47.1,37.0,30.34,WNW,293,0.0,0.0,68,0.00,,,0.00,WUHU216HW,2013-03-30 16:43:00,
2013-03-30 10:48:00,48.0,37.1,30.34,NW,315,0.0,0.0,66,0.00,,,0.00,WUHU216HW,2013-03-30 16:48:00,
2013-03-30 10:53:00,48.5,37.2,30.34,NNW,338,0.0,0.0,65,0.00,,,0.00,WUHU216HW,2013-03-30 16:53:00,
2013-03-30 10:58:00,49.1,37.4,30.34,WNW,293,0.0,0.0,64,0.00,,,0.00,WUHU216HW,2013-03-30 16:58:00,
2013-03-30 11:03:00,49.8,37.6,30.34,WNW,293,1.7,1.7,63,0.00,,,0.00,WUHU216HW,2013-03-30 17:03:00,
2013-03-30 11:08:00,50.3,37.4,30.34,WNW,293,0.0,1.7,61,0.00,,,0.00,WUHU216HW,2013-03-30 17:08:00,
2013-03-30 11:13:00,50.7,37.4,30.34,NNW,338,4.4,4.4,60,0.00,,,0.00,WUHU216HW,2013-03-30 17:13:00,
2013-03-30 11:18:00,51.2,36.9,30.34,North,0,2.2,4.6,58,0.00,,,0.00,WUHU216HW,2013-03-30 17:18:00,
2013-03-30 11:23:00,51.6,37.2,30.34,NNW,338,5.3,5.8,58,0.00,,,0.00,WUHU216HW,2013-03-30 17:23:00,
2013-03-30 11:29:00,51.9,36.6,30.34,NW,315,3.8,8.7,56,0.00,,,0.00,WUHU216HW,2013-03-30 17:29:00,
2013-03-30 11:34:00,52.1,36.8,30.34,NW,315,5.5,8.7,56,0.00,,,0.00,WUHU216HW,2013-03-30 17:34:00,
2013-03-30 11:39:00,52.3,37.0,30.34,NW,315,2.6,5.5,56,0.00,,,0.00,WUHU216HW,2013-03-30 17:39:00,
2013-03-30 11:44:00,52.1,36.8,30.34,West,270,1.7,3.1,56,0.00,,,0.00,WUHU216HW,2013-03-30 17:44:00,
2013-03-30 11:49:00,52.1,36.3,30.34,WNW,293,3.8,3.8,55,0.00,,,0.00,WUHU216HW,2013-03-30 17:49:00,
2013-03-30 11:54:00,51.9,35.7,30.34,West,270,0.0,3.8,54,0.00,,,0.00,WUHU216HW,2013-03-30 17:54:00,
2013-03-30 11:59:00,51.8,34.7,30.34,WSW,248,0.8,5.5,52,0.00,,,0.00,WUHU216HW,2013-03-30 17:59:00,
2013-03-30 12:04:00,51.8,34.7,30.33,NE,45,1.5,9.1,52,0.00,,,0.00,WUHU216HW,2013-03-30 18:04:00,
2013-03-30 12:09:00,51.6,34.5,30.33,West,270,2.6,9.1,52,0.00,,,0.00,WUHU216HW,2013-03-30 18:09:00,
2013-03-30 12:14:00,51.6,34.5,30.33,West,270,1.5,5.8,52,0.00,,,0.00,WUHU216HW,2013-03-30 18:14:00,
2013-03-30 12:19:00,51.9,34.4,30.33,North,0,2.4,5.8,51,0.00,,,0.00,WUHU216HW,2013-03-30 18:19:00,
2013-03-30 12:24:00,52.1,34.1,30.33,WNW,293,4.6,5.1,50,0.00,,,0.00,WUHU216HW,2013-03-30 18:24:00,
2013-03-30 12:29:00,52.5,34.4,30.33,West,270,0.0,5.3,49,0.00,,,0.00,WUHU216HW,2013-03-30 18:29:00,
2013-03-30 12:34:00,52.5,32.7,30.33,NNW,338,11.4,11.4,48,0.00,,,0.00,WUHU216HW,2013-03-30 18:34:00,
2013-03-30 12:39:00,52.7,32.9,30.33,NW,315,5.1,11.4,47,0.00,,,0.00,WUHU216HW,2013-03-30 18:39:00,
2013-03-30 12:44:00,52.8,33.6,30.33,NW,315,0.0,7.6,48,0.00,,,0.00,WUHU216HW,2013-03-30 18:44:00,
2013-03-30 12:49:00,52.8,32.5,30.33,North,0,5.1,9.1,46,0.00,,,0.00,WUHU216HW,2013-03-30 18:49:00,
2013-03-30 12:54:00,52.7,32.3,30.33,NNW,338,5.8,9.1,46,0.00,,,0.00,WUHU216HW,2013-03-30 18:54:00,
2013-03-30 12:59:00,52.7,32.3,30.33,NNW,338,1.3,6.9,46,0.00,,,0.00,WUHU216HW,2013-03-30 18:59:00,
2013-03-30 13:04:00,52.5,32.2,30.33,North,0,6.2,7.8,46,0.00,,,0.00,WUHU216HW,2013-03-30 19:04:00,
2013-03-30 13:10:00,52.3,32.0,30.33,WNW,293,3.5,8.2,46,0.00,,,0.00,WUHU216HW,2013-03-30 19:10:00,
2013-03-30 13:15:00,52.3,32.6,30.33,WNW,293,4.6,8.2,47,0.00,,,0.00,WUHU216HW,2013-03-30 19:15:00,
2013-03-30 13:20:00,52.3,30.9,30.32,NW,315,0.0,9.1,44,0.00,,,0.00,WUHU216HW,2013-03-30 19:20:00,
2013-03-30 13:25:00,52.3,32.0,30.32,NW,315,1.5,9.1,46,0.00,,,0.00,WUHU216HW,2013-03-30 19:25:00,
2013-03-30 13:30:00,52.3,32.6,30.32,NW,315,0.0,4.6,47,0.00,,,0.00,WUHU216HW,2013-03-30 19:30:00,
2013-03-30 13:35:00,52.5,32.7,30.32,NW,315,3.5,8.0,47,0.00,,,0.00,WUHU216HW,2013-03-30 19:35:00,
2013-03-30 13:40:00,52.7,31.8,30.32,West,270,0.0,8.0,45,0.00,,,0.00,WUHU216HW,2013-03-30 19:40:00,
2013-03-30 13:45:00,52.7,31.8,30.32,West,270,0.0,6.0,45,0.00,,,0.00,WUHU216HW,2013-03-30 19:45:00,
2013-03-30 13:50:00,52.7,31.8,30.32,NW,315,5.5,7.1,45,0.00,,,0.00,WUHU216HW,2013-03-30 19:50:00,
2013-03-30 13:55:00,52.5,32.2,30.31,WNW,293,0.0,7.1,46,0.00,,,0.00,WUHU216HW,2013-03-30 19:55:00,
2013-03-30 14:00:00,52.5,32.2,30.32,NW,315,0.0,6.7,46,0.00,,,0.00,WUHU216HW,2013-03-30 20:00:00,
2013-03-30 14:05:00,52.5,31.6,30.32,NW,315,5.5,6.7,45,0.00,,,0.00,WUHU216HW,2013-03-30 20:05:00,
2013-03-30 14:10:00,52.5,30.5,30.32,North,0,6.0,10.7,43,0.00,,,0.00,WUHU216HW,2013-03-30 20:10:00,
2013-03-30 14:15:00,52.5,30.5,30.31,NNW,338,4.0,10.7,43,0.00,,,0.00,WUHU216HW,2013-03-30 20:15:00,
2013-03-30 14:21:00,52.8,31.4,30.31,WNW,293,0.0,6.9,44,0.00,,,0.00,WUHU216HW,2013-03-30 20:21:00,
2013-03-30 14:26:00,53.2,30.6,30.31,NW,315,1.7,6.9,42,0.00,,,0.00,WUHU216HW,2013-03-30 20:26:00,
2013-03-30 14:31:00,53.2,30.6,30.31,West,270,0.8,7.6,42,0.00,,,0.00,WUHU216HW,2013-03-30 20:31:00,
2013-03-30 14:36:00,53.4,30.2,30.31,NW,315,9.6,9.6,41,0.00,,,0.00,WUHU216HW,2013-03-30 20:36:00,
2013-03-30 14:41:00,53.7,30.5,30.31,West,270,0.0,9.6,41,0.00,,,0.00,WUHU216HW,2013-03-30 20:41:00,
2013-03-30 14:46:00,53.7,30.5,30.31,WNW,293,0.0,9.3,41,0.00,,,0.00,WUHU216HW,2013-03-30 20:46:00,
2013-03-30 14:51:00,54.1,30.3,30.31,West,270,2.4,9.8,40,0.00,,,0.00,WUHU216HW,2013-03-30 20:51:00,
2013-03-30 14:56:00,54.1,29.6,30.31,NW,315,0.0,9.8,39,0.00,,,0.00,WUHU216HW,2013-03-30 20:56:00,
2013-03-30 15:02:00,54.3,29.7,30.30,West,270,0.0,7.1,39,0.00,,,0.00,WUHU216HW,2013-03-30 21:02:00,
2013-03-30 15:07:00,54.6,30.1,30.30,NW,315,11.6,11.6,39,0.00,,,0.00,WUHU216HW,2013-03-30 21:07:00,
2013-03-30 15:12:00,54.6,29.4,30.30,NW,315,3.5,13.4,38,0.00,,,0.00,WUHU216HW,2013-03-30 21:12:00,
2013-03-30 15:17:00,54.8,29.5,30.30,WNW,293,13.8,13.8,38,0.00,,,0.00,WUHU216HW,2013-03-30 21:17:00,
2013-03-30 15:22:00,55.0,29.7,30.30,NNW,338,6.0,13.8,38,0.00,,,0.00,WUHU216HW,2013-03-30 21:22:00,
2013-03-30 15:27:00,55.0,30.4,30.29,NW,315,6.2,6.4,39,0.00,,,0.00,WUHU216HW,2013-03-30 21:27:00,
2013-03-30 15:32:00,55.2,30.5,30.29,NNW,338,5.1,9.3,39,0.00,,,0.00,WUHU216HW,2013-03-30 21:32:00,
2013-03-30 15:37:00,55.5,31.6,30.28,NNW,338,3.1,9.3,40,0.00,,,0.00,WUHU216HW,2013-03-30 21:37:00,
2013-03-30 15:42:00,55.7,31.0,30.28,West,270,2.9,9.3,39,0.00,,,0.00,WUHU216HW,2013-03-30 21:42:00,
2013-03-30 15:47:00,55.9,30.5,30.28,NW,315,8.5,9.3,38,0.00,,,0.00,WUHU216HW,2013-03-30 21:47:00,
2013-03-30 15:52:00,55.7,31.0,30.28,West,270,4.0,8.5,39,0.00,,,0.00,WUHU216HW,2013-03-30 21:52:00,
2013-03-30 15:58:00,55.4,30.7,30.28,West,270,2.2,4.0,39,0.00,,,0.00,WUHU216HW,2013-03-30 21:58:00,
2013-03-30 16:03:00,55.2,30.5,30.28,West,270,0.0,3.8,39,0.00,,,0.00,WUHU216HW,2013-03-30 22:03:00,
2013-03-30 16:08:00,55.2,30.5,30.28,WNW,293,2.6,7.8,39,0.00,,,0.00,WUHU216HW,2013-03-30 22:08:00,
2013-03-30 16:13:00,55.4,31.4,30.28,NW,315,2.9,7.8,40,0.00,,,0.00,WUHU216HW,2013-03-30 22:13:00,
2013-03-30 16:18:00,55.7,31.7,30.27,WNW,293,3.3,7.3,40,0.00,,,0.00,WUHU216HW,2013-03-30 22:18:00,
2013-03-30 16:23:00,56.1,31.4,30.27,NW,315,9.3,9.3,39,0.00,,,0.00,WUHU216HW,2013-03-30 22:23:00,
2013-03-30 16:28:00,56.3,30.8,30.26,NW,315,5.1,10.0,38,0.00,,,0.00,WUHU216HW,2013-03-30 22:28:00,
2013-03-30 16:33:00,56.3,30.8,30.27,NNW,338,8.5,10.9,38,0.00,,,0.00,WUHU216HW,2013-03-30 22:33:00,
2013-03-30 16:38:00,56.3,30.8,30.27,WNW,293,5.8,10.9,38,0.00,,,0.00,WUHU216HW,2013-03-30 22:38:00,
2013-03-30 16:43:00,56.3,30.7,30.27,NW,315,6.9,11.6,38,0.00,,,0.00,WUHU216HW,2013-03-30 22:43:00,
2013-03-30 16:48:00,56.1,30.7,30.27,West,270,3.3,11.6,38,0.00,,,0.00,WUHU216HW,2013-03-30 22:48:00,
2013-03-30 16:54:00,55.9,31.2,30.27,North,0,4.2,5.5,39,0.00,,,0.00,WUHU216HW,2013-03-30 22:54:00,
2013-03-30 16:59:00,55.9,30.5,30.27,West,270,4.2,5.3,38,0.00,,,0.00,WUHU216HW,2013-03-30 22:59:00,
2013-03-30 17:04:00,55.9,30.5,30.26,West,270,0.0,6.9,38,0.00,,,0.00,WUHU216HW,2013-03-30 23:04:00,
2013-03-30 17:09:00,55.9,31.4,30.26,West,270,0.0,7.3,39,0.00,,,0.00,WUHU216HW,2013-03-30 23:09:00,
2013-03-30 17:14:00,56.3,30.7,30.26,West,270,0.0,11.1,38,0.00,,,0.00,WUHU216HW,2013-03-30 23:14:00,
2013-03-30 17:19:00,56.1,30.7,30.26,NW,315,6.0,11.1,38,0.00,,,0.00,WUHU216HW,2013-03-30 23:19:00,
2013-03-30 17:24:00,56.1,30.7,30.26,WSW,248,1.1,9.8,38,0.00,,,0.00,WUHU216HW,2013-03-30 23:24:00,
2013-03-30 17:29:00,56.1,30.7,30.26,NW,315,6.2,8.0,38,0.00,,,0.00,WUHU216HW,2013-03-30 23:29:00,
2013-03-30 17:34:00,56.1,30.7,30.25,WNW,293,1.7,10.0,38,0.00,,,0.00,WUHU216HW,2013-03-30 23:34:00,
2013-03-30 17:39:00,56.3,30.7,30.25,West,270,2.9,10.0,38,0.00,,,0.00,WUHU216HW,2013-03-30 23:39:00,
2013-03-30 17:44:00,56.3,30.1,30.25,WNW,293,2.0,7.1,37,0.00,,,0.00,WUHU216HW,2013-03-30 23:44:00,
2013-03-30 17:49:00,56.3,30.8,30.25,West,270,0.0,7.1,38,0.00,,,0.00,WUHU216HW,2013-03-30 23:49:00,
2013-03-30 17:54:00,56.4,31.0,30.25,WSW,248,4.4,9.3,38,0.00,,,0.00,WUHU216HW,2013-03-30 23:54:00,
2013-03-30 17:59:00,56.8,30.6,30.25,West,270,6.0,9.3,37,0.00,,,0.00,WUHU216HW,2013-03-30 23:59:00,
2013-03-30 18:04:00,56.8,30.6,30.25,West,270,5.5,7.6,37,0.00,,,0.00,WUHU216HW,2013-03-31 00:04:00,
2013-03-30 18:09:00,56.4,30.3,30.25,SW,225,0.0,7.6,37,0.00,,,0.00,WUHU216HW,2013-03-31 00:09:00,
2013-03-30 18:14:00,56.4,30.3,30.25,WSW,248,7.3,8.5,37,0.00,,,0.00,WUHU216HW,2013-03-31 00:14:00,
2013-03-30 18:19:00,56.4,30.1,30.25,West,270,2.4,8.5,37,0.00,,,0.00,WUHU216HW,2013-03-31 00:19:00,
2013-03-30 18:25:00,56.1,30.0,30.25,SW,225,6.7,6.7,37,0.00,,,0.00,WUHU216HW,2013-03-31 00:25:00,
2013-03-30 18:30:00,55.7,29.6,30.25,WSW,248,4.4,6.7,37,0.00,,,0.00,WUHU216HW,2013-03-31 00:30:00,
2013-03-30 18:35:00,55.5,30.0,30.24,SW,225,3.5,4.9,38,0.00,,,0.00,WUHU216HW,2013-03-31 00:35:00,
2013-03-30 18:40:00,55.2,29.8,30.24,South,180,0.0,5.1,38,0.00,,,0.00,WUHU216HW,2013-03-31 00:40:00,
2013-03-30 18:45:00,55.2,29.8,30.25,WSW,248,2.6,8.0,38,0.00,,,0.00,WUHU216HW,2013-03-31 00:45:00,
2013-03-30 18:50:00,55.0,30.4,30.24,West,270,5.5,8.0,39,0.00,,,0.00,WUHU216HW,2013-03-31 00:50:00,
2013-03-30 18:55:00,54.6,30.1,30.24,SW,225,3.3,5.5,39,0.00,,,0.00,WUHU216HW,2013-03-31 00:55:00,
2013-03-30 19:00:00,54.5,29.9,30.24,West,270,2.6,4.0,39,0.00,,,0.00,WUHU216HW,2013-03-31 01:00:00,
2013-03-30 19:05:00,54.3,30.4,30.24,West,270,2.4,4.0,40,0.00,,,0.00,WUHU216HW,2013-03-31 01:05:00,
2013-03-30 19:10:00,54.3,30.4,30.24,West,270,1.7,3.3,40,0.00,,,0.00,WUHU216HW,2013-03-31 01:10:00,
2013-03-30 19:16:00,54.1,30.4,30.24,West,270,0.0,4.2,40,0.00,,,0.00,WUHU216HW,2013-03-31 01:16:00,
2013-03-30 19:21:00,53.9,30.1,30.23,WSW,248,2.2,6.0,40,0.00,,,0.00,WUHU216HW,2013-03-31 01:21:00,
2013-03-30 19:26:00,53.7,30.0,30.24,West,270,4.6,6.0,40,0.00,,,0.00,WUHU216HW,2013-03-31 01:26:00,
2013-03-30 19:31:00,53.2,29.5,30.24,West,270,2.9,5.3,40,0.00,,,0.00,WUHU216HW,2013-03-31 01:31:00,
2013-03-30 19:36:00,52.8,29.7,30.24,West,270,3.3,5.5,41,0.00,,,0.00,WUHU216HW,2013-03-31 01:36:00,
2013-03-30 19:41:00,52.5,29.4,30.24,WSW,248,1.3,5.8,41,0.00,,,0.00,WUHU216HW,2013-03-31 01:41:00,
2013-03-30 19:47:00,52.1,29.1,30.23,West,270,2.6,5.3,41,0.00,,,0.00,WUHU216HW,2013-03-31 01:47:00,
2013-03-30 19:52:00,51.6,29.1,30.24,SW,225,0.0,5.3,42,0.00,,,0.00,WUHU216HW,2013-03-31 01:52:00,
2013-03-30 19:57:00,51.4,28.8,30.24,WSW,248,0.0,5.1,42,0.00,,,0.00,WUHU216HW,2013-03-31 01:57:00,
2013-03-30 20:02:00,50.9,28.5,30.24,West,270,2.2,7.6,42,0.00,,,0.00,WUHU216HW,2013-03-31 02:02:00,
2013-03-30 20:07:00,50.5,28.7,30.24,West,270,5.8,7.6,43,0.00,,,0.00,WUHU216HW,2013-03-31 02:07:00,
2013-03-30 20:12:00,50.1,28.4,30.24,West,270,4.0,5.8,43,0.00,,,0.00,WUHU216HW,2013-03-31 02:12:00,
2013-03-30 20:17:00,49.8,28.0,30.24,SW,225,5.1,5.1,43,0.00,,,0.00,WUHU216HW,2013-03-31 02:17:00,
2013-03-30 20:22:00,49.6,28.4,30.24,West,270,0.0,5.1,44,0.00,,,0.00,WUHU216HW,2013-03-31 02:22:00,
2013-03-30 20:27:00,49.2,28.1,30.24,SSW,203,4.4,4.4,44,0.00,,,0.00,WUHU216HW,2013-03-31 02:27:00,
2013-03-30 20:33:00,48.9,27.8,30.24,West,270,2.2,6.4,44,0.00,,,0.00,WUHU216HW,2013-03-31 02:33:00,
2013-03-30 20:38:00,48.7,28.1,30.24,SSW,203,0.0,6.4,45,0.00,,,0.00,WUHU216HW,2013-03-31 02:38:00,
2013-03-30 20:43:00,48.3,27.8,30.24,SSW,203,0.0,5.3,45,0.00,,,0.00,WUHU216HW,2013-03-31 02:43:00,
2013-03-30 20:48:00,48.0,27.5,30.24,SSW,203,0.0,5.3,45,0.00,,,0.00,WUHU216HW,2013-03-31 02:48:00,
2013-03-30 20:53:00,47.8,27.8,30.25,WSW,248,0.0,11.8,46,0.00,,,0.00,WUHU216HW,2013-03-31 02:53:00,
2013-03-30 20:58:00,47.8,27.8,30.25,WSW,248,3.3,11.8,46,0.00,,,0.00,WUHU216HW,2013-03-31 02:58:00,
2013-03-30 21:03:00,47.4,27.5,30.25,WSW,248,5.3,5.8,46,0.00,,,0.00,WUHU216HW,2013-03-31 03:03:00,
2013-03-30 21:08:00,47.3,27.4,30.25,SSW,203,5.8,10.0,46,0.00,,,0.00,WUHU216HW,2013-03-31 03:08:00,
2013-03-30 21:13:00,47.1,27.7,30.25,South,180,6.9,10.0,47,0.00,,,0.00,WUHU216HW,2013-03-31 03:13:00,
2013-03-30 21:18:00,46.9,27.6,30.25,SSW,203,9.1,9.1,47,0.00,,,0.00,WUHU216HW,2013-03-31 03:18:00,
2013-03-30 21:23:00,46.9,27.6,30.25,South,180,7.8,9.8,47,0.00,,,0.00,WUHU216HW,2013-03-31 03:23:00,
2013-03-30 21:28:00,46.7,28.0,30.25,SSW,203,5.8,10.0,48,0.00,,,0.00,WUHU216HW,2013-03-31 03:28:00,
2013-03-30 21:33:00,46.5,27.8,30.25,SSW,203,2.4,10.0,48,0.00,,,0.00,WUHU216HW,2013-03-31 03:33:00,
2013-03-30 21:38:00,46.5,27.8,30.25,South,180,2.9,7.8,48,0.00,,,0.00,WUHU216HW,2013-03-31 03:38:00,
2013-03-30 21:43:00,46.5,28.3,30.25,South,180,0.0,7.8,49,0.00,,,0.00,WUHU216HW,2013-03-31 03:43:00,
2013-03-30 21:48:00,46.2,28.0,30.25,SSW,203,0.0,5.1,49,0.00,,,0.00,WUHU216HW,2013-03-31 03:48:00,
2013-03-30 21:54:00,45.6,27.5,30.25,SW,225,0.0,0.0,49,0.00,,,0.00,WUHU216HW,2013-03-31 03:54:00,
2013-03-30 21:59:00,45.3,27.7,30.25,SW,225,0.0,0.0,50,0.00,,,0.00,WUHU216HW,2013-03-31 03:59:00,
2013-03-30 22:00:00,45.1,27.6,30.25,SW,225,0.0,0.0,50,0.00,,,0.00,WUHU216HW,2013-03-31 04:00:00,
2013-03-30 22:01:00,45.1,27.6,30.25,SW,225,0.0,0.0,50,0.00,,,0.00,WUHU216HW,2013-03-31 04:01:00,
2013-03-30 22:07:00,44.6,27.1,30.25,SW,225,0.0,0.0,50,0.00,,,0.00,WUHU216HW,2013-03-31 04:07:00,
2013-03-30 22:12:00,44.2,27.2,30.25,SW,225,0.0,0.0,51,0.00,,,0.00,WUHU216HW,2013-03-31 04:12:00,
2013-03-30 22:17:00,43.8,26.9,30.25,SW,225,0.0,0.0,51,0.00,,,0.00,WUHU216HW,2013-03-31 04:17:00,
2013-03-30 22:22:00,43.5,27.0,30.25,SSW,203,0.0,4.9,52,0.00,,,0.00,WUHU216HW,2013-03-31 04:22:00,
2013-03-30 22:27:00,43.3,26.8,30.25,SSW,203,2.9,4.9,52,0.00,,,0.00,WUHU216HW,2013-03-31 04:27:00,
2013-03-30 22:32:00,43.1,27.1,30.25,SW,225,0.0,3.8,53,0.00,,,0.00,WUHU216HW,2013-03-31 04:32:00,
2013-03-30 22:37:00,43.1,27.1,30.25,SW,225,0.0,2.9,53,0.00,,,0.00,WUHU216HW,2013-03-31 04:37:00,
2013-03-30 22:42:00,43.1,27.1,30.25,SW,225,0.0,0.0,53,0.00,,,0.00,WUHU216HW,2013-03-31 04:42:00,
2013-03-30 22:47:00,43.1,27.1,30.25,SSW,203,2.6,3.8,53,0.00,,,0.00,WUHU216HW,2013-03-31 04:47:00,
2013-03-30 22:52:00,42.9,26.9,30.24,SSW,203,7.1,7.1,53,0.00,,,0.00,WUHU216HW,2013-03-31 04:52:00,
2013-03-30 22:57:00,43.1,27.5,30.25,SSW,203,0.0,7.1,54,0.00,,,0.00,WUHU216HW,2013-03-31 04:57:00,
2013-03-30 23:02:00,43.1,27.5,30.25,SSW,203,2.9,6.7,54,0.00,,,0.00,WUHU216HW,2013-03-31 05:02:00,
2013-03-30 23:07:00,43.3,27.7,30.25,SW,225,2.9,5.5,54,0.00,,,0.00,WUHU216HW,2013-03-31 05:07:00,
2013-03-30 23:12:00,43.3,27.7,30.25,SW,225,0.0,3.8,54,0.00,,,0.00,WUHU216HW,2013-03-31 05:12:00,
2013-03-30 23:17:00,43.5,27.9,30.24,SW,225,2.9,2.9,54,0.00,,,0.00,WUHU216HW,2013-03-31 05:17:00,
2013-03-30 23:23:00,43.5,27.9,30.25,SSW,203,2.6,2.9,54,0.00,,,0.00,WUHU216HW,2013-03-31 05:23:00,
2013-03-30 23:28:00,43.3,27.7,30.24,SSW,203,0.0,3.1,54,0.00,,,0.00,WUHU216HW,2013-03-31 05:28:00,
2013-03-30 23:33:00,42.9,27.4,30.24,SSW,203,0.0,3.1,54,0.00,,,0.00,WUHU216HW,2013-03-31 05:33:00,
2013-03-30 23:38:00,42.4,26.8,30.24,SSW,203,0.0,0.0,54,0.00,,,0.00,WUHU216HW,2013-03-31 05:38:00,
2013-03-30 23:43:00,41.7,26.4,30.24,SSW,203,0.0,0.0,55,0.00,,,0.00,WUHU216HW,2013-03-31 05:43:00,
2013-03-30 23:48:00,41.0,26.4,30.24,SSW,203,0.0,0.0,56,0.00,,,0.00,WUHU216HW,2013-03-31 05:48:00,
2013-03-30 23:53:00,40.2,25.7,30.23,SSW,203,0.0,0.0,56,0.00,,,0.00,WUHU216HW,2013-03-31 05:53:00,
2013-03-30 23:58:00,39.7,25.6,30.23,SSW,203,0.0,0.0,57,0.00,,,0.00,WUHU216HW,2013-03-31 05:58:00,